sat.trackr.live / text

‹ back to catalog

STARLINK-2473

NORAD 48131 · 2021-027AR

PAYLOAD ACTIVE UNKNOWN

§ Identity

Operator
Country
US
Launch date
2021-04-07
Launch site
AFETR
Launch vehicle
Mass (kg)
RCS (m²)

Purposes: comms

External: N2YO · Heavens-Above · Gunter

§ Orbital elements

Epoch: 2026-05-25T00:59:56.252256Z

Period
94.01 min
Inclination
53.1593°
Eccentricity
0.0001370
Mean motion
15.31707731 rev/d
Perigee alt
469.8 km
Apogee alt
471.7 km
Semi-major
6,848.9 km
B*
1.5940e-6
RAAN
157.7295°
Arg perigee
91.8267°
Mean anomaly
268.2891°
Rev number
28,437

§ Raw data

STARLINK-24731 48131U 21027AR  26145.04162329 -.00000316  00000+0  15940-5 0  99982 48131  53.1593 157.7295 0001370  91.8267 268.2891 15.31707731284370

JSON: /api/v1/satellites/48131 · /tle

For live sub-satellite position, see the globe view (requires WebGL).

§ Visibility from observer

Set your observer location to see the next 7 days of passes ≥ 10°. The values pass through the URL so the page stays shareable.

No JS? Fill the form by hand. The geolocation button needs JavaScript.